Lexington Weather

Lexington, Massachusetts, USA

47°F
10/22/2019 2:35am 
  • Lexington Conditions: Mostly cloudy
  • Temperature: 46.8°F / 8.2°CWarmer 1.3°F than last hour.
  • Dew Point: 45.3°FIncreased 2.0°Fsince last hour.
  • Relative Humidity: 95%Increased 3.0% since last hour.
  • Wind: Calm, 10-min avg: Calm, gust: None
  • Barometer: 30.12 in Steady
  • Visibility: 9 miles
  • Rain Today: 0.00 in
  •   

Regional Weather Roundup
for Boston, MA

        
000
ASUS41 KBOX 201100
RWRBOX

REGIONAL WEATHER ROUNDUP
NATIONAL WEATHER SERVICE BOSTON/NORTON MA
700 AM EDT SUN OCT 20 2019

NOTE:  "FAIR" INDICATES FEW OR NO CLOUDS BELOW 12,000 FEET WITH NO 
SIGNIFICANT WEATHER AND/OR OBSTRUCTIONS TO VISIBILITY.

MAZALL-201200-
EASTERN MASSACHUSETTS
  
CITY           SKY/WX    TMP DP  RH WIND       PRES   REMARKS
BOSTON         MOCLDY    46  36  68 NW3       30.08R                  
BEVERLY        FAIR      36  33  89 N3        30.07S                  
LAWRENCE       FAIR      35  33  92 CALM      30.10R                  
BEDFORD        FAIR      33  28  81 CALM      30.08R                  
BLUE HILL      NOT AVBL                                               
NORWOOD        FOG       32  28  85 CALM      30.08S VSB 1            
MARSHFIELD     NOT AVBL                                               
PLYMOUTH       FAIR      34  33  96 CALM      30.08R                  
TAUNTON        FAIR      30  26  85 CALM      30.08R FOG              
NEW BEDFORD    FAIR      32  29  88 CALM      30.07R                  
$$

MAZALL-201200-
CAPE COD AND THE ISLANDS
  
CITY           SKY/WX    TMP DP  RH WIND       PRES   REMARKS
FALMOUTH       CLEAR     34  34 100 CALM      30.07R                  
HYANNIS        NOT AVBL                                               
CHATHAM        NOT AVBL                                               
PROVINCETOWN   FAIR      35  33  92 CALM        N/A                   
NANTUCKET      FAIR      41  39  93 CALM      30.07R                  
MARTHAS VNYRD  FAIR      31  30  96 N3        30.07R FOG              
$$
 
MAZALL-201200-
CENTRAL AND WESTERN MASSACHUSETTS
  
CITY           SKY/WX    TMP DP  RH WIND       PRES   REMARKS
WORCESTER      FAIR      42  32  67 N7        30.06S                  
FITCHBURG      FAIR      32  30  92 CALM      30.10R                  
ORANGE         FAIR      30  27  88 CALM      30.08F                  
SPRINGFIELD    MOCLDY    30  29  97 CALM      30.05S                  
WESTFIELD      FAIR      32  29  88 N5        30.06S WCI  27          
NORTH ADAMS    FAIR      31  29  92 CALM      30.05S                  
PITTSFIELD     FAIR      31  28  89 CALM      30.01F                  
$$
 
RIZALL-201200-
RHODE ISLAND
  
CITY           SKY/WX    TMP DP  RH WIND       PRES   REMARKS
PROVIDENCE     FAIR      37  36  96 CALM      30.08R                  
NEWPORT        FAIR      41  38  89 N3        30.06S                  
BLOCK ISLAND   FAIR      45  42  89 CALM      30.06S                  
SMITHFIELD     FAIR     N/A N/A N/A NE3       30.07R                  
WESTERLY       FAIR      39  36  89 N3        30.06F                  
$$
 
CTZALL-201200-
CONNECTICUT
  
CITY           SKY/WX    TMP DP  RH WIND       PRES   REMARKS
BRADLEY INTL   FAIR      36  32  85 NW3       30.06S                  
HARTFORD       FAIR      35  34  96 CALM      30.06F                  
BRIDGEPORT     FAIR      44  41  89 N5        30.04F                  
DANBURY        FOG       37  36  96 CALM      30.05F VSB 1/4          
GROTON         NOT AVBL                                               
NEW HAVEN      FAIR      43  38  82 N6        30.04F                  
CHESTER        FAIR      39  39 100 CALM      30.04F                  
MERIDEN        FAIR      35  34  96 NW3       30.06F                  
WILLIMANTIC    MOCLDY    32  31  96 CALM      30.08S                  
OXFORD         FAIR      38  36  92 E3        30.04S                  
$$

MEZ002-015-021-024-NHZ003-005-008-011-012-014-VTZ005-008-201200-
NORTHERN NEW ENGLAND
  
CITY           SKY/WX    TMP DP  RH WIND       PRES   REMARKS
PORTLAND ME    FAIR      34  30  85 CALM      30.11S                  
BANGOR ME      FAIR      31  30  96 CALM      30.10S                  
CONCORD NH     CLOUDY    29  27  92 CALM      30.09F                  
MANCHESTER NH  FAIR      36  33  89 N3        30.07S                  
NASHUA NH      FAIR      31  31 100 NW6       30.10R WCI  25          
PORTSMOUTH NH  MOCLDY    35  32  89 CALM      30.07S                  
JAFFREY NH     FAIR      29  27  92 CALM      30.06F                  
KEENE NH       MOCLDY    29  28  96 CALM      30.09S                  
BURLINGTON VT  MOCLDY    35  32  88 CALM      30.03S                  
MT. WASHINGTON MOCLDY    39   9  28 W17         N/A  WCI  30          
$$

NYZ052-076-201200-
EASTERN NEW YORK
  
CITY           SKY/WX    TMP DP  RH WIND       PRES   REMARKS
ALBANY         MOCLDY    37  34  89 CALM      30.04S                  
NEW YORK CITY  MOCLDY    52  48  86 CALM      30.02S                  
$$
 
ANZALL-201200-
MARINE OBSERVATIONS
  
STATION/POSITION TIME  TEMP    WIND        PRES    VSBY  WAVE
                       AIR SEA DIR/SP/G                  HT/PER
                 (UTC) (F)     (DEG/KT/KT) (MB)    (MI)  (FT/S)
BOSTON BUOY      0950   52 56   10/  6/  8 1017.3          1/12
BUZZARDS BAY     1000   53     360/  6/  7 1018.4R
NANTUCKET SOUND  1040      56              1018.3R
MASS BAY-STELLWA NOT AVBL
ISLE OF SHOALS   1000   49      20/ 10/ 12 1018.2R
S OF BLOCK IS    1030      60                N/A           2/13
$$

......................KEY.........................
  SKY/WX - SKY CONDITION/PRESENT WEATHER
  TMP    - TEMPERATURE IN FAHRENHEIT
  DWPT   - DEWPOINT IN FAHRENHEIT
  RH     - RELATIVE HUMIDITY IN PERCENT
  WIND   - DIRECTION AND SPEED IN MPH
  PRES   - MEAN SEA LEVEL PRESSURE IN INCHES OF HG
  WCI    - WIND CHILL INDEX
  VSB    - VISIBILITY IN MILES
  HX     - HEAT INDEX
  TC     - TEMPERATURE IN CELSIUS
  VRB    - VARIABLE WIND DIRECTION
  N/A    - NOT AVAILABLE
  
      

Other recent Regional Weather Roundups

Tue Oct 22, 2:10am

Tue Oct 22, 2:00am

Tue Oct 22, 1:10am

Tue Oct 22, 1:00am

Tue Oct 22, 12:10am

Tue Oct 22, 12:00am

Mon Oct 21, 11:10pm

Mon Oct 21, 11:00pm

Mon Oct 21, 10:10pm

Mon Oct 21, 10:01pm

Mon Oct 21, 9:10pm

Mon Oct 21, 9:00pm

Mon Oct 21, 8:10pm

Mon Oct 21, 8:00pm

Mon Oct 21, 7:10pm

Mon Oct 21, 7:01pm

Mon Oct 21, 6:10pm

Mon Oct 21, 6:01pm

Mon Oct 21, 5:10pm

Mon Oct 21, 5:01pm

Mon Oct 21, 4:10pm

Mon Oct 21, 4:00pm

Mon Oct 21, 3:10pm

Mon Oct 21, 3:01pm

Mon Oct 21, 2:10pm

Mon Oct 21, 2:00pm

Mon Oct 21, 1:10pm

Mon Oct 21, 1:01pm

Mon Oct 21, 12:10pm

Mon Oct 21, 12:00pm

Mon Oct 21, 11:10am

Mon Oct 21, 11:00am

Mon Oct 21, 10:10am

Mon Oct 21, 10:00am

Mon Oct 21, 9:10am

Mon Oct 21, 9:00am

Mon Oct 21, 7:10am

Mon Oct 21, 7:00am

Mon Oct 21, 6:10am

Mon Oct 21, 6:00am

Mon Oct 21, 5:10am

Mon Oct 21, 5:00am

Mon Oct 21, 4:10am

Mon Oct 21, 4:00am

Mon Oct 21, 3:10am

Mon Oct 21, 3:00am

Mon Oct 21, 2:10am

Mon Oct 21, 2:01am

Mon Oct 21, 1:10am

Mon Oct 21, 1:00am

Mon Oct 21, 12:10am

Mon Oct 21, 12:00am

Sun Oct 20, 11:10pm

Sun Oct 20, 11:00pm

Sun Oct 20, 10:10pm

Sun Oct 20, 10:00pm

Sun Oct 20, 9:10pm

Sun Oct 20, 9:01pm

Sun Oct 20, 8:10pm

Sun Oct 20, 8:00pm

Sun Oct 20, 7:10pm

Sun Oct 20, 7:01pm

Sun Oct 20, 6:10pm

Sun Oct 20, 6:00pm

Sun Oct 20, 5:10pm

Sun Oct 20, 5:00pm

Sun Oct 20, 4:10pm

Sun Oct 20, 4:00pm

Sun Oct 20, 3:10pm

Sun Oct 20, 3:00pm

Sun Oct 20, 2:10pm

Sun Oct 20, 2:01pm

Sun Oct 20, 1:10pm

Sun Oct 20, 1:01pm

Sun Oct 20, 12:10pm

Sun Oct 20, 12:00pm

Sun Oct 20, 11:10am

Sun Oct 20, 11:00am

Sun Oct 20, 10:10am

Sun Oct 20, 10:00am

Sun Oct 20, 9:10am

Sun Oct 20, 9:00am

Sun Oct 20, 8:10am

Sun Oct 20, 8:00am

Sun Oct 20, 7:10am

Sun Oct 20, 6:10am

Sun Oct 20, 6:00am

Sun Oct 20, 5:10am

Sun Oct 20, 5:00am

Sun Oct 20, 4:10am

Sun Oct 20, 4:00am

Sun Oct 20, 3:10am

Sun Oct 20, 3:00am

Sun Oct 20, 2:10am

Sun Oct 20, 2:00am

Sun Oct 20, 1:10am

Sun Oct 20, 1:00am

Sun Oct 20, 12:10am

Sun Oct 20, 12:00am

Sat Oct 19, 11:10pm

Sat Oct 19, 11:00pm

Sat Oct 19, 10:10pm

Sat Oct 19, 10:00pm

Sat Oct 19, 9:10pm

Sat Oct 19, 9:00pm

Sat Oct 19, 8:10pm

Sat Oct 19, 8:00pm

Sat Oct 19, 7:10pm

Sat Oct 19, 7:00pm

Sat Oct 19, 6:10pm

Sat Oct 19, 6:00pm

Sat Oct 19, 5:10pm

Sat Oct 19, 5:00pm

Sat Oct 19, 4:10pm

Sat Oct 19, 4:00pm

Sat Oct 19, 3:10pm

Sat Oct 19, 3:01pm

Sat Oct 19, 2:10pm

Sat Oct 19, 2:00pm

Sat Oct 19, 1:10pm

Sat Oct 19, 1:01pm

Sat Oct 19, 12:10pm

Sat Oct 19, 12:00pm

Sat Oct 19, 11:10am

Sat Oct 19, 11:01am

Sat Oct 19, 10:10am

Sat Oct 19, 10:00am

Sat Oct 19, 9:10am

Sat Oct 19, 9:00am

Sat Oct 19, 8:10am

Sat Oct 19, 8:00am

Sat Oct 19, 7:10am

Sat Oct 19, 7:00am

Sat Oct 19, 6:10am

Sat Oct 19, 6:00am

Sat Oct 19, 5:10am

Sat Oct 19, 5:00am

Sat Oct 19, 4:10am

Sat Oct 19, 4:00am

Sat Oct 19, 3:10am

Sat Oct 19, 3:00am

Meta data:

ID: 64d523e3-60d6-4e1d-a841-6f019a0fc4cc
Link: https://api.weather.gov/products/64d523e3-60d6-4e1d-a841-6f019a0fc4cc